This is the latest recevied weather packets stored in our database for station/object K0QED. If no packets are shown the sender has not sent any weather packets the latest 10 day(s).
| Time | Temp. | Humidity | Pressure | Rain* | Wind** | Luminosity | Snow |
|---|---|---|---|---|---|---|---|
| 1788478980 | 27.78° C | 24% | 1022.2 hPa | 0 mm | - | 156 W/m² | - |
| 1788478676 | 27.78° C | 24% | 1022.1 hPa | 0 mm | - | 31 W/m² | - |
| 1788478372 | 28.33° C | 23% | 1022.1 hPa | 0 mm | - | 207 W/m² | - |
| 1788478070 | 27.78° C | 23% | 1022.2 hPa | 0 mm | - | 202 W/m² | - |
| 1788477767 | 28.33° C | 23% | 1022.1 hPa | 0 mm | - | 238 W/m² | - |
| 1788477466 | 28.33° C | 23% | 1022 hPa | 0 mm | - | 241 W/m² | - |
| 1788477161 | 28.33° C | 22% | 1021.9 hPa | 0 mm | - | 221 W/m² | - |
| 1788476857 | 28.33° C | 23% | 1022.2 hPa | 0 mm | - | 247 W/m² | - |
| 1788476551 | 28.89° C | 23% | 1021.9 hPa | 0 mm | - | 275 W/m² | - |
| 1788476248 | 28.89° C | 22% | 1022.1 hPa | 0 mm | - | 284 W/m² | - |
| 1788475944 | 28.89° C | 22% | 1022 hPa | 0 mm | - | 331 W/m² | - |
| 1788475640 | 28.89° C | 22% | 1022.1 hPa | 0 mm | - | 341 W/m² | - |
| 1788475336 | 28.89° C | 23% | 1022 hPa | 0 mm | - | 62 W/m² | - |
| 1788475036 | 28.89° C | 22% | 1021.9 hPa | 0 mm | - | 329 W/m² | - |
| 1788474735 | 28.89° C | 23% | 1022.1 hPa | 0 mm | - | 359 W/m² | - |
| 1788474430 | 30° C | 23% | 1022.2 hPa | 0 mm | - | 374 W/m² | - |
| 1788474129 | 29.44° C | 23% | 1022 hPa | 0 mm | - | 396 W/m² | - |
| 1788473824 | 28.89° C | 22% | 1022.2 hPa | 0 mm | - | 407 W/m² | - |
| 1788473522 | 28.33° C | 23% | 1022.4 hPa | 0 mm | - | 403 W/m² | - |
| 1788473221 | 29.44° C | 22% | 1022.4 hPa | 0 mm | - | 370 W/m² | - |
| 1788472915 | 28.89° C | 23% | 1022.4 hPa | 0 mm | - | 410 W/m² | - |
| 1788472615 | 29.44° C | 22% | 1022.5 hPa | 0 mm | - | 473 W/m² | - |
| 1788472310 | 28.33° C | 24% | 1022.4 hPa | 0 mm | - | 486 W/m² | - |
| 1788472008 | 28.89° C | 23% | 1022.5 hPa | 0 mm | - | 485 W/m² | - |
| 1788471704 | 30° C | 21% | 1022.1 hPa | 0 mm | - | 494 W/m² | - |
* Rain latest hour (hover to see other rain measurements)
** Current wind speed in m/s (hover to see current wind gust speed)